Regional Weather Roundup
Issued by NWS Newport/Morehead, NC

Current Version | Previous Version | Text Only | Print | Product List | Glossary On
Versions: 1 2 3 4 5 6 7 8 9 10 11 12 13 14 15 16 17 18 19 20 21 22 23 24 25 26 27 28 29 30 31 32 33 34 35 36 37 38 39 40 41 42 43 44 45 46 47 48 49 50
000
ASUS42 KMHX 290624
RWRMHX
WEATHER ROUNDUP FOR EASTERN NORTH CAROLINA
NATIONAL WEATHER SERVICE NEWPORT/MOREHEAD CITY NC
200 AM EDT SUN MAR 29 2015

NOTE: "FAIR" INDICATES FEW OR NO CLOUDS BELOW 12,000 FEET
WITH NO SIGNIFICANT WEATHER AND/OR OBSTRUCTIONS TO VISIBILITY

NCZ015>017-031-032-045>047-102-103-290700-
NORTH COAST

CITY           SKY/WX    TMP DP  RH WIND       PRES   REMARKS
EDENTON        CLEAR     30  18  60 CALM      30.29R
ELIZABETH CITY CLEAR     31  14  49 NW9       30.28R
KITTY HAWK     CLEAR     33  11  40 NW10G16   30.25R
MANTEO         CLEAR     33  16  49 N12G20    30.26S

$$

NCZ045>047-081-094-103-104-290700-
CENTRAL COAST

CITY           SKY/WX    TMP DP  RH WIND       PRES   REMARKS
FRISCO         PTCLDY    36  21  54 N10G17    30.25R
SWANQUARTER      N/A     30 N/A N/A N3G10     30.24S

$$

NCZ095-097-098-100-101-290700-
SOUTHERN COAST

CITY           SKY/WX    TMP DP  RH WIND       PRES   REMARKS
BEAUFORT       CLEAR     36  24  62 N12       30.26R
CEDAR ISLAND     N/A     37 N/A N/A N24       30.30S
JACKSONVILLE   CLEAR     35  18  49 N10       30.28R
PINEY ISLAND   CLEAR    N/A N/A N/A N17G24    30.26R
WILMINGTON     CLEAR     36  20  52 N7        30.28R


$$

NCZ011>013-027>030-043-044-078>080-089-090>093-098-290700-
COASTAL PLAIN

CITY           SKY/WX    TMP DP  RH WIND       PRES   REMARKS
AHOSKIE        CLEAR     27  16  62 CALM      30.30S
CLINTON        FAIR      35  15  45 N6        30.31R
ELIZABETHTOWN  CLEAR     33  20  56 CALM      30.29R
GOLDSBORO      CLEAR     33  21  61 N9        30.28R
GREENVILLE     CLEAR     30  19  64 CALM      30.31R
HAVELOCK       CLEAR     35  21  56 N14       30.29R
KENANSVILLE    CLEAR     33  17  51 N6        30.31R
KINSTON        CLEAR     32  20  62 N5        30.31R
NEW BERN       CLEAR     34  18  52 N9        30.30R
RICHLANDS      CLEAR     32  16  51 N5        30.30R
ROCKY MOUNT    CLEAR     28  18  66 N6        30.31R
WASHINGTON     CLEAR     29  16  59 N5        30.30R
WHITEVILLE     CLEAR     37  16  43 N3        30.29R

$$

AMZ130-135-150-152-154-156-158-170-250-252-270-ANZ085-086-088-633-658-670-290700-
MARINE OBSERVATIONS

STATION/POSITION TIME  TEMP    WIND        PRES    WAVE   SWELL
                       AIR SEA DIR/SP/G            HT/PER HT/PER
                 (UTC) (F)     (DEG/KT/KT) (MB)    (FT/S) (FT/S)
CHESAPEAKE LIGHT 0600   33     330/ 25/ 29 1024.5
64 E VA BEACH    0550   36 56  330/ 19/ 25 1022.5    6/ 6   2/10
DUCK             0500   35 42  340/ 23/ 25 1023.0
2 E DUCK         0541      42                N/A     5/ 6
10 NE DUCK       NOT AVBL
OREGON INLET     0500   33 46  330/ 12/ 17 1024.5
HATTERAS CG      0506   40 53   20/ 19/ 24 1024.2
CAPE LOOKOUT     0600   39     350/ 19/ 23 1024.0
BEAUFORT LAB     0506   41 55  360/ 10/ 14 1023.3
27 SE WRIGHTSVLE 0600   43 65   30/ 19/ 23 1024.9
5 SE WRIGHTSVLE  0500   44 56   30/ 23/ 27 1024.1
225 S CAPE HAT   0550   56 68  300/ 16/ 21 1020.8   10/ 8   7/ 9
41 SE CHARLESTON 0550   55 68  350/ 12/ 14 1022.9    4/ 5   2/ 9

$$



USA.gov is the U.S. government's official web portal to all federal, state and local government web resources and services.